Content
SEND FEEDBACK

Daily
Averages
Monthly
Summary
Spain

A CORUŅA - DOWNTOWN, SPAIN


Home > Europe > Spain
Elevation: 220 feet     Latitude: 43 22N     Longitude: 008 25W

WEATHER
 
SELECT A DAY
Number of Records: 269,803;   Date Range: 7/1/96 - 7/7/14
 
SHARE

PRINT THIS DATA

[ ← Previous Day ]
WEATHER ALMANAC - JANUARY 10, 2013
[ Next Day → ]
[ °C ]   °F
Weather ElementAverageHighLow
Temperature52 °F55.4 °F (5:30 am)39.2 °F (11:30 pm)
Dewpoint46.7 °F51.8 °F (7:00 am)39.2 °F (11:30 pm)
Humidity82.9 %100 % (8:13 am)67 % (2:30 pm)
Barometer30.27 in30.33 in (11:30 am)30.18 in (5:30 am)
Wind Speed4.7 mph11.5 mph (8:13 am)
Weather ElementAverage
Visibility5.2 mi
Wind DirectionSSW (212.1 °)

Weather ElementTotal
Precipitation---
Heating Degree Days17.7 (Base 65)
Averaged from 43 records on January 10, 2013
WEATHER CONDITIONS BREAKOUT
WIND DIRECTION BREAKOUT
WEATHER BY HOUR - JANUARY 10, 2013
[ °C ]   °F
Local TimeTemperatureDewpointHumidityBarometerVisibilityWind DirectionWind SpeedGust SpeedPrecipitationEventsConditions
12:30 AM53.6 °F50.0 °F88 %30.21 in6.2 miVariable1.2 mphScattered Clouds
1:00 AM53.6 °F50.0 °F88 %30.21 in6.2 miSSE (160°)3.5 mphScattered Clouds
5:30 AM55.4 °F50.0 °F82 %30.18 in6.2 miSSW (200°)4.6 mphPartly Cloudy
6:00 AM55.4 °F48.2 °F77 %30.18 in6.2 miSSW (200°)3.5 mphPartly Cloudy
6:09 AM55.4 °F48.2 °F77 %30.18 in6.2 miSouth (180°)3.5 mphRainRain
6:30 AM55.4 °F48.2 °F77 %30.18 in6.2 miVariable2.3 mphPartly Cloudy
7:00 AM55.4 °F51.8 °F88 %30.21 in1.9 miWSW (250°)8.1 mphLight Drizzle
7:12 AM55.4 °F51.8 °F88 %30.21 in1.9 miWSW (250°)9.2 mphLight Drizzle
7:20 AM53.6 °F51.8 °F94 %30.21 in1.9 miWNW (300°)9.2 mphRainRain
7:30 AM53.6 °F51.8 °F94 %30.24 in1.9 miNW (310°)9.2 mphDrizzle
7:35 AM53.6 °F51.8 °F94 %30.24 in0.9 miWNW (300°)8.1 mphRainRain
8:00 AM53.6 °F51.8 °F94 %30.24 in0.7 miNW (310°)9.2 mphRainRain
8:13 AM51.8 °F51.8 °F100 %30.24 in1.2 miNW (310°)11.5 mphRainRain
8:30 AM51.8 °F50.0 °F94 %30.24 in4.3 miNW (310°)8.1 mphRainLight Rain
9:00 AM51.8 °F48.2 °F88 %30.27 in6.2 miNW (320°)6.9 mphMostly Cloudy
9:30 AM53.6 °F48.2 °F82 %30.27 in6.2 miWNW (290°)3.5 mphMostly Cloudy
10:00 AM53.6 °F46.4 °F77 %30.30 in6.2 miNW (310°)3.5 mphMostly Cloudy
10:30 AM53.6 °F48.2 °F82 %30.30 in6.2 miWNW (300°)3.5 mphScattered Clouds
11:00 AM53.6 °F46.4 °F77 %30.30 in6.2 miNW (310°)5.8 mphScattered Clouds
11:30 AM53.6 °F46.4 °F77 %30.33 in6.2 miNW (310°)3.5 mphScattered Clouds
12:00 PM55.4 °F46.4 °F72 %30.33 in6.2 miNW (310°)3.5 mphScattered Clouds
12:30 PM53.6 °F46.4 °F77 %30.33 in6.2 miNW (320°)5.8 mphScattered Clouds
1:00 PM53.6 °F46.4 °F77 %30.33 in6.2 miNNW (340°)6.9 mphRainLight Rain
1:30 PM53.6 °F46.4 °F77 %30.33 in6.2 miNW (310°)6.9 mphMostly Cloudy
2:00 PM53.6 °F46.4 °F77 %30.30 in6.2 miNNW (330°)4.6 mphScattered Clouds
2:30 PM55.4 °F44.6 °F67 %30.30 in6.2 miNNW (340°)8.1 mphScattered Clouds
3:00 PM53.6 °F44.6 °F72 %30.30 in6.2 miNNW (340°)6.9 mphScattered Clouds
3:30 PM53.6 °F44.6 °F72 %30.30 in6.2 miNNW (340°)3.5 mphScattered Clouds
4:00 PM53.6 °F44.6 °F72 %30.30 in6.2 miNorth (350°)4.6 mphScattered Clouds
4:30 PM53.6 °F44.6 °F72 %30.30 in6.2 miNNW (340°)3.5 mphScattered Clouds
5:00 PM53.6 °F44.6 °F72 %30.30 in6.2 miNorth (10°)5.8 mphScattered Clouds
5:30 PM53.6 °F44.6 °F72 %30.30 in6.2 miNorth (350°)3.5 mphScattered Clouds
6:00 PM53.6 °F42.8 °F67 %30.30 in6.2 miVariable2.3 mphScattered Clouds
6:30 PM51.8 °F44.6 °F76 %30.30 in6.2 miCalmScattered Clouds
7:00 PM50.0 °F44.6 °F82 %30.30 in6.2 miVariable1.2 mphScattered Clouds
7:30 PM50.0 °F42.8 °F76 %30.30 in6.2 miCalmPartly Cloudy
8:00 PM48.2 °F44.6 °F87 %30.30 in6.2 miVariable1.2 mphPartly Cloudy
8:30 PM44.6 °F42.8 °F93 %30.30 in6.2 miVariable1.2 mphPartly Cloudy
9:00 PM44.6 °F42.8 °F93 %30.30 inSouth (170°)3.5 mphClear
10:00 PM42.8 °F42.8 °F100 %30.30 in5.6 miSouth (170°)3.5 mphPartly Cloudy
10:30 PM42.8 °F42.8 °F100 %30.30 in5.6 miVariable2.3 mphPartly Cloudy
11:00 PM42.8 °F41.0 °F93 %30.30 in4.3 miVariable1.2 mphFogShallow Fog
11:30 PM39.2 °F39.2 °F100 %30.30 in0.3 miSouth (180°)4.6 mphFogFog
Hourly data recorded from LECO, located miles away from A Coruņa - Downtown, Spain







STORIES FROM OUR PARTNERS